Location: Bay Ridge
(40.6340°N, 74.0146°W)
Time: 06:44:08
(UTC+00:00)

Cosmos 1408 - Pass Details

Date: 15 November 2019
Orbit: 470 x 497 km, 82.6° (Epoch: 05 December)

Event Time Altitude Azimuth Distance (km) Brightness Sun altitude
Rises 10:38:16 0° 192° (SSW) 2,565 6.3 -12.3°
Reaches altitude 10° 10:40:23 10° 195° (SSW) 1,686 5.3 -11.9°
Maximum altitude 10:44:03 68° 279° (W) 536 2.5 -11.3°
Drops below altitude 10° 10:47:44 10° 2° (N) 1,688 5.2 -10.6°
Sets 10:49:51 0° 5° (N) 2,570 6.1 -10.2°
